When you browse on this site, cookies collect data to enhance your experience and personalize the content and advertising you see.
Visit our Privacy Policy to learn more. By continuing to use the site, you agree to this use of cookies and data.
  • In Switzerland
  • List of Countries
  • For 7 days
  • Water Temperature
  • Weather Map
  • Weather Widgets
  • user-avatar
    Login

    Hourly Weather Aylesbury

    Today, 16 December, Monday

    Time Temperature Precipitation Wind Pressure Humidity
    00:00 +5°C° 0.1 mm 6 mps 740 mmHg 85%
    01:00 +4°C° 0.1 mm 6 mps 740 mmHg 86%
    02:00 +5°C° 0.1 mm 5 mps 740 mmHg 86%
    03:00 +5°C° 0.1 mm 4 mps 740 mmHg 87%
    04:00 +4°C° 0 mm 4 mps 740 mmHg 87%
    05:00 +4°C° 0 mm 4 mps 740 mmHg 88%
    06:00 +4°C° 0 mm 4 mps 740 mmHg 88%
    07:00 +4°C° 0 mm 3 mps 741 mmHg 87%
    08:00 +4°C° 0 mm 3 mps 741 mmHg 87%
    09:00 +4°C° 0 mm 3 mps 742 mmHg 86%
    10:00 +4°C° 0 mm 3 mps 742 mmHg 84%
    11:00 +6°C° 0 mm 2 mps 742 mmHg 82%
    12:00 +7°C° 0 mm 2 mps 742 mmHg 80%
    13:00 +6°C° 0 mm 2 mps 742 mmHg 81%
    14:00 +6°C° 0 mm 2 mps 742 mmHg 83%
    15:00 +7°C° 0 mm 1 mps 742 mmHg 85%
    16:00 +7°C° 0 mm 1 mps 742 mmHg 87%
    17:00 +6°C° 0 mm 1 mps 741 mmHg 89%
    18:00 +6°C° 0 mm 1 mps 741 mmHg 91%
    19:00 +6°C° 0 mm 1 mps 741 mmHg 91%
    20:00 +6°C° 0 mm 1 mps 741 mmHg 92%
    21:00 +6°C° 0 mm 1 mps 741 mmHg 93%
    22:00 +6°C° 0.1 mm 1 mps 741 mmHg 93%
    23:00 +6°C° 0.1 mm 1 mps 741 mmHg 93%

    Tomorrow, 17 December, Tuesday

    Time Temperature Precipitation Wind Pressure Humidity
    00:00 +6°C° 0.1 mm 1 mps 741 mmHg 93%
    01:00 +5°C° 0.3 mm 2 mps 740 mmHg 94%
    02:00 +5°C° 0.3 mm 2 mps 740 mmHg 94%
    03:00 +4°C° 0.3 mm 3 mps 740 mmHg 94%
    04:00 +4°C° 0.8 mm 3 mps 740 mmHg 94%
    05:00 +4°C° 0.8 mm 3 mps 739 mmHg 94%
    06:00 +4°C° 0.8 mm 4 mps 739 mmHg 94%
    07:00 +4°C° 0.9 mm 4 mps 739 mmHg 94%
    08:00 +4°C° 0.9 mm 4 mps 739 mmHg 94%
    09:00 +4°C° 0.9 mm 4 mps 739 mmHg 94%
    10:00 +4°C° 0.7 mm 4 mps 739 mmHg 92%
    11:00 +4°C° 0.7 mm 4 mps 739 mmHg 90%
    12:00 +4°C° 0.7 mm 4 mps 739 mmHg 88%
    13:00 +4°C° 0 mm 3 mps 740 mmHg 89%
    14:00 +4°C° 0 mm 3 mps 740 mmHg 90%
    15:00 +5°C° 0 mm 2 mps 741 mmHg 91%
    16:00 +5°C° 0 mm 2 mps 741 mmHg 91%
    17:00 +5°C° 0 mm 1 mps 742 mmHg 92%
    18:00 +5°C° 0 mm 1 mps 742 mmHg 93%
    19:00 +4°C° 0 mm 2 mps 743 mmHg 94%
    20:00 +3°C° 0 mm 2 mps 743 mmHg 94%
    21:00 +3°C° 0 mm 2 mps 744 mmHg 95%
    22:00 +3°C° 0 mm 2 mps 744 mmHg 95%
    23:00 +2°C° 0 mm 2 mps 745 mmHg 94%

    Day after tomorrow, 18 December, Wednesday

    Time Temperature Precipitation Wind Pressure Humidity
    00:00 +2°C° 0 mm 2 mps 745 mmHg 94%
    01:00 +2°C° 0 mm 2 mps 745 mmHg 94%
    02:00 +2°C° 0 mm 2 mps 746 mmHg 93%
    03:00 +1°C° 0 mm 2 mps 746 mmHg 92%
    04:00 +1°C° 0 mm 2 mps 746 mmHg 91%
    05:00 +2°C° 0 mm 1 mps 747 mmHg 90%
    06:00 +2°C° 0 mm 1 mps 747 mmHg 88%
    07:00 +3°C° 0 mm 1 mps 747 mmHg 88%
    08:00 +2°C° 0 mm 2 mps 747 mmHg 88%
    09:00 +2°C° 0 mm 2 mps 747 mmHg 87%
    10:00 +3°C° 0 mm 2 mps 747 mmHg 85%
    11:00 +3°C° 0 mm 3 mps 747 mmHg 83%
    12:00 +4°C° 0 mm 3 mps 747 mmHg 80%
    13:00 +4°C° 0 mm 3 mps 746 mmHg 83%
    14:00 +4°C° 0 mm 3 mps 746 mmHg 85%
    15:00 +4°C° 0 mm 3 mps 746 mmHg 88%
    16:00 +4°C° 0 mm 4 mps 745 mmHg 89%
    17:00 +2°C° 0 mm 5 mps 745 mmHg 91%
    18:00 +2°C° 0 mm 5 mps 744 mmHg 92%
    19:00 +2°C° 0 mm 6 mps 744 mmHg 91%
    20:00 +2°C° 0 mm 6 mps 743 mmHg 89%
    21:00 +2°C° 0 mm 6 mps 743 mmHg 88%
    22:00 +2°C° 0 mm 7 mps 742 mmHg 89%
    23:00 +3°C° 0 mm 7 mps 741 mmHg 91%

    19 December, Thursday

    Time Temperature Precipitation Wind Pressure Humidity
    00:00 +3°C° 0 mm 7 mps 740 mmHg 93%
    01:00 +4°C° 0.2 mm 7 mps 739 mmHg 93%
    02:00 +4°C° 0.2 mm 7 mps 738 mmHg 93%
    03:00 +5°C° 0.2 mm 8 mps 736 mmHg 94%
    04:00 +6°C° 1.2 mm 8 mps 735 mmHg 93%
    05:00 +6°C° 1.2 mm 7 mps 735 mmHg 93%
    06:00 +8°C° 1.2 mm 7 mps 734 mmHg 93%
    07:00 +8°C° 0.1 mm 6 mps 734 mmHg 91%
    08:00 +7°C° 0.1 mm 6 mps 735 mmHg 90%
    09:00 +7°C° 0.1 mm 5 mps 735 mmHg 88%
    10:00 +8°C° 0 mm 5 mps 736 mmHg 87%
    11:00 +8°C° 0 mm 4 mps 737 mmHg 87%
    12:00 +8°C° 0 mm 4 mps 737 mmHg 86%
    13:00 +8°C° 0 mm 4 mps 737 mmHg 87%
    14:00 +9°C° 0 mm 3 mps 737 mmHg 88%
    15:00 +8°C° 0 mm 3 mps 738 mmHg 89%
    16:00 +8°C° 0 mm 3 mps 738 mmHg 91%
    17:00 +7°C° 0 mm 3 mps 738 mmHg 93%
    18:00 +5°C° 0 mm 3 mps 738 mmHg 95%
    19:00 +5°C° 0 mm 3 mps 738 mmHg 95%
    20:00 +5°C° 0 mm 3 mps 738 mmHg 95%
    21:00 +5°C° 0 mm 3 mps 738 mmHg 96%
    22:00 +4°C° 0 mm 3 mps 738 mmHg 96%
    23:00 +4°C° 0 mm 3 mps 737 mmHg 96%

    20 December, Friday

    Time Temperature Precipitation Wind Pressure Humidity
    00:00 +4°C° 0 mm 3 mps 737 mmHg 96%
    01:00 +4°C° 0 mm 3 mps 737 mmHg 96%
    02:00 +4°C° 0 mm 3 mps 736 mmHg 96%
    03:00 +4°C° 0 mm 3 mps 736 mmHg 97%
    04:00 +4°C° 0 mm 3 mps 736 mmHg 96%
    05:00 +5°C° 0 mm 3 mps 736 mmHg 96%
    06:00 +5°C° 0 mm 3 mps 735 mmHg 96%
    07:00 +5°C° 0 mm 3 mps 735 mmHg 96%
    08:00 +5°C° 0 mm 3 mps 735 mmHg 96%
    09:00 +5°C° 0 mm 3 mps 735 mmHg 96%
    10:00 +5°C° 0 mm 3 mps 735 mmHg 94%
    11:00 +7°C° 0 mm 3 mps 735 mmHg 92%
    12:00 +8°C° 0 mm 3 mps 735 mmHg 90%
    13:00 +8°C° 0 mm 3 mps 735 mmHg 91%
    14:00 +7°C° 0 mm 2 mps 734 mmHg 91%
    15:00 +7°C° 0 mm 2 mps 734 mmHg 91%
    16:00 +7°C° 0 mm 2 mps 735 mmHg 92%
    17:00 +6°C° 0 mm 2 mps 735 mmHg 93%
    18:00 +7°C° 0 mm 1 mps 735 mmHg 94%
    19:00 +7°C° 0 mm 1 mps 735 mmHg 94%
    20:00 +6°C° 0 mm 1 mps 736 mmHg 95%
    21:00 +6°C° 0 mm 1 mps 736 mmHg 95%
    22:00 +6°C° 0 mm 1 mps 736 mmHg 95%
    23:00 +6°C° 0 mm 1 mps 736 mmHg 95%

    21 December, Saturday

    Time Temperature Precipitation Wind Pressure Humidity
    00:00 +5°C° 0 mm 1 mps 736 mmHg 95%
    01:00 +5°C° 0 mm 1 mps 736 mmHg 95%
    02:00 +4°C° 0 mm 2 mps 737 mmHg 94%
    03:00 +4°C° 0 mm 2 mps 737 mmHg 94%
    04:00 +4°C° 0 mm 2 mps 737 mmHg 94%
    05:00 +4°C° 0 mm 2 mps 737 mmHg 95%
    06:00 +4°C° 0 mm 2 mps 738 mmHg 95%
    07:00 +4°C° 0 mm 2 mps 738 mmHg 95%
    08:00 +3°C° 0 mm 3 mps 739 mmHg 96%
    09:00 +2°C° 0 mm 3 mps 739 mmHg 96%
    10:00 +4°C° 0 mm 3 mps 739 mmHg 92%
    11:00 +5°C° 0 mm 4 mps 740 mmHg 89%
    12:00 +6°C° 0 mm 4 mps 740 mmHg 86%
    13:00 +6°C° 0 mm 4 mps 740 mmHg 87%
    14:00 +7°C° 0 mm 3 mps 740 mmHg 89%
    15:00 +5°C° 0 mm 3 mps 741 mmHg 90%
    16:00 +5°C° 0 mm 3 mps 740 mmHg 90%
    17:00 +4°C° 0 mm 3 mps 740 mmHg 89%
    18:00 +3°C° 0 mm 3 mps 740 mmHg 89%
    19:00 +4°C° 0.2 mm 4 mps 739 mmHg 89%
    20:00 +3°C° 0.2 mm 5 mps 738 mmHg 89%
    21:00 +5°C° 0.2 mm 5 mps 737 mmHg 89%
    22:00 +5°C° 1.4 mm 6 mps 736 mmHg 90%
    23:00 +6°C° 1.4 mm 7 mps 735 mmHg 92%
    Show more